Retour au catalogue

MOLNIYA 1-63

ActifCommunicationsHEO
NORAD 15429·PAYLOAD·🇷🇺 Russia

Lancé Dec 14, 1984 depuis Plesetsk Cosmodrome

Loading…

Prochains Passages (prochaines 24 heures)

TLE

FraisSource: Space-Track

Époque: Sep 8, 2026, 09:53 UTC

1 15429U 84124A   26251.41193976  .00001453  00000-0  00000-0 0  9999
2 15429  62.9238 337.4565 7296452 258.5169  40.8534  2.00534507305735

Suivez MOLNIYA 1-63 en temps réel avec AllMySat

Download on the App Store